Miscellaneous Local Product
Issued by NWS Hastings, NE

Home | Current Version | Previous Version | Graphics & Text | Print | Product List | Glossary On
Versions: 1 2 3 4 5 6 7 8 9 10 11 12 13 14 15 16 17 18 19 20 21 22 23 24 25 26 27 28 29 30 31 32 33 34 35 36 37 38 39 40 41 42 43 44 45 46 47 48 49 50
000
AXUS43 KGID 311402
MISGRI

GID CWA HOURLY WEATHER ROUNDUP
NATIONAL WEATHER SERVICE HASTINGS NE
900 AM CDT TUE MAY 31 2016

NOTE: "FAIR" INDICATES FEW OR NO CLOUDS BELOW 12,000 FEET WITH NO
SIGNIFICANT WEATHER AND/OR OBSTRUCTIONS TO VISIBILITY.

...SOUTH CENTRAL NEBRASKA...

CITY           SKY/WX    TMP DP  RH WIND       PRES   REMARKS
GRAND ISLAND   CLOUDY    61  52  72 N12       30.01R
HASTINGS       CLOUDY    61  52  72 N18       30.00R
KEARNEY        CLOUDY    61  48  63 N15       30.03S
ORD            CLOUDY    59  49  69 N15       30.01R
YORK           CLOUDY    63  57  82 N8        29.99R
AURORA         CLOUDY    60  57  88 N13       30.00R
LEXINGTON      CLOUDY    59  50  73 N13       30.05S
HOLDREGE       MOSUNNY   58  50  74 N16       30.02S
HEBRON         CLOUDY    62  60  91 NW7       29.96S

...NEBRASKA PANHANDLE...

CITY           SKY/WX    TMP DP  RH WIND       PRES   REMARKS
CHADRON        MOSUNNY   56  42  59 W8        30.07F
ALLIANCE       CLOUDY    52  43  71 MISG      30.10R
SCOTTSBLUFF    CLOUDY    51  42  71 NW9       30.12S
SIDNEY         CLOUDY    50  43  77 NW9       30.14R

...WESTERN AND NORTH CENTRAL NEBRASKA...

CITY           SKY/WX    TMP DP  RH WIND       PRES   REMARKS
VALENTINE      SUNNY     58  40  51 W12       30.01F
AINSWORTH      MOSUNNY   57  42  55 NW13      30.02R
ONEILL         SUNNY     59  48  67 NW15      29.99S
BROKEN BOW     SUNNY     59  47  64 N18       30.03S
IMPERIAL       SUNNY     56  45  66 N12       30.12R
NORTH PLATTE   PTSUNNY   57  44  62 N9        30.08R
MCCOOK         MOSUNNY   59  50  72 N10       30.08R

...EASTERN NEBRASKA...

CITY           SKY/WX    TMP DP  RH WIND       PRES   REMARKS
NORFOLK        CLOUDY    60  53  77 NW7       29.98R
SO SIOUX CITY  CLOUDY    63  58  83 NW12      29.93R
TEKAMAH        RAIN      64  60  87 SW6       29.95R FOG
COLUMBUS       CLOUDY    63  52  67 NW10      29.99S
ALBION         CLOUDY    60  50  69 N13G18    29.98S
OMAHA EPPLEY   CLOUDY    70  61  73 NW12      29.91R
OFFUTT AFB     PTSUNNY   69  64  84 W10       29.91R
MILLARD        PTSUNNY   68  60  74 NW9       29.92R
LINCOLN        CLOUDY    65  59  81 NW12      29.95S
NEBRASKA CITY  MOSUNNY   69  64  84 N8        29.92R
BEATRICE       CLOUDY    65  59  80 NW12      29.95R
FALLS CITY     LGT RAIN  71  63  75 NW10      29.91R

...NORTHERN KANSAS...

CITY           SKY/WX    TMP DP  RH WIND       PRES   REMARKS
GOODLAND       CLOUDY    57  50  77 N15       30.11R
HILL CITY      CLOUDY    62  56  80 N16G22    30.04R
NORTON         MOSUNNY   57  48  72 N13       30.04R
PHILLIPSBURG   SUNNY     63  55  77 N13       30.02R
SMITH CENTER   SUNNY     61  59  94 N8        30.00S
BELOIT         SUNNY     57  54  88 NW8       29.96S
HAYS           PTSUNNY   61  52  72 NW10      29.99R
RUSSELL        CLOUDY    61  59  93 NW12      29.96S
CONCORDIA      CLOUDY    62  59  90 NW3       29.96R
SALINA         CLOUDY    64  61  90 NW9       29.96R
TOPEKA         CLOUDY    69  62  78 W5        29.94R



USA.gov is the U.S. government's official web portal to all federal, state and local government web resources and services.